Location: A O Calhoun Middle School
(33.2198°N, 97.1397°W)
Time: 13:52:39
(UTC+00:00)

Meteor 1-27 Rocket - Pass Details

Date: 08 December 2021
Orbit: 831 x 909 km, 81.3° (Epoch: 26 January)

Event Time Altitude Azimuth Distance (km) Brightness Sun altitude
Rises 12:14:24 0° 349° (N) 3,440 6.6 -13.5°
Reaches altitude 10° 12:16:49 10° 348° (NNW) 2,512 5.9 -13.0°
Maximum altitude 12:22:31 76° 264° (W) 908 3.7 -11.9°
Drops below altitude 10° 12:28:19 10° 180° (S) 2,549 6.5 -10.7°
Sets 12:30:47 0° 178° (S) 3,495 7.2 -10.2°
